Flag for Germany Weather past 2 weeks in Melsungen, Hesse, Germany

Now
41 °F

Overcast.


Feels Like: 37 °F
Forecast: 34 / 43 °F
Wind: 7 mph from Southwest

Location: Fritzlar

Current Time: Dec 20, 2014 at 9:30:32 AM

Latest Report: Dec 20, 2014 at 9:00 AM


Visibility: 19 mi

Pressure: 30.12 "Hg

Humidity: 72%

Dew point: 33 °F

Location of MelsungenLocation

Historic Weather in Melsungen — Graph

°F

Melsungen temperature yesterday

Maximum temperature yesterday: 54 °F (at 12:00 AM)
Minimum temperature yesterday: 43 °F (at 9:00 PM)
Average temperature yesterday: 49 °F

Past Weeks' High & Low Weather Summary

 TemperatureHumidityPressure
High56 °F (Dec 18, 9:00 PM)97% (Dec 13, 11:00 PM)30.42 "Hg (Dec 13, 11:00 PM)
Low27 °F (Dec 9, 1:00 AM)67% (Dec 7, 1:00 PM)29.47 "Hg (Dec 12, 7:00 PM)
Average39 °F88%29.99 "Hg
* Reported Dec 5 8:00 AM — Dec 20 8:00 AM, Melsungen, Weather by CustomWeather, © 2014

Note: Actual official high and low records may vary slightly from our data, if they occured in-between our weather recording intervals... More about our weather records

Advertising

Melsungen weather history for previous 24 hours

 ConditionsComfort  
Time TempWeatherWind HumidityBarometerVisibility
8:00 AM
Dec 20
42 °FPassing clouds.7 mph72%30.13 "Hg19 mi
7:00 AM42 °FOvercast.7 mph71%30.14 "Hg12 mi
6:00 AM42 °FOvercast.6 mph74%30.13 "Hg12 mi
5:00 AM42 °FOvercast.6 mph73%30.13 "Hg12 mi
4:00 AM42 °FOvercast.6 mph72%30.13 "Hg12 mi
3:00 AM43 °FOvercast.6 mph72%30.13 "Hg12 mi
2:00 AM43 °FOvercast.6 mph70%30.11 "Hg12 mi
1:00 AM42 °FOvercast.5 mph76%30.10 "Hg12 mi
12:00 AM43 °FOvercast.6 mph74%30.09 "Hg12 mi
11:00 PM
Dec 19
44 °FOvercast.6 mph67%30.08 "Hg12 mi
9:00 PM43 °FOvercast.3 mph75%30.03 "Hg12 mi
8:00 PM43 °FOvercast.2 mph80%30.00 "Hg12 mi
7:00 PM44 °FPassing clouds.2 mph77%29.96 "Hg12 mi
6:00 PM47 °FOvercast.3 mph84%29.92 "Hg12 mi
5:00 PM47 °FRain. Overcast.3 mph91%29.88 "Hg12 mi
4:00 PM49 °FLight rain. Overcast.5 mph86%29.86 "Hg9 mi
3:00 PM51 °FRain. Overcast.7 mph90%29.82 "Hg11 mi
2:00 PM51 °FRain. Overcast.7 mph89%29.83 "Hg11 mi
1:00 PM51 °FRain. Overcast.8 mph88%29.84 "Hg11 mi
12:00 PM51 °FRain. Overcast.9 mph87%29.85 "Hg12 mi
11:00 AM50 °FRain. Overcast.8 mph89%29.87 "Hg11 mi
10:00 AM50 °FDrizzle. Overcast.9 mph88%29.86 "Hg11 mi
9:00 AM50 °FDrizzle. Overcast.8 mph90%29.87 "Hg9 mi
Weather by CustomWeather, © 2014

See weather overviewHow to use our weather pages